LDPE-3A

Last updated on Thu Jul 03 2025 00:02:49 GMT+0000 (Coordinated Universal Time)

1 55264U 23008B 25183.57266933 -.00000172 00000+0 00000+0 0 9994 2 55264 1.3216 85.6253 0001245 65.1003 68.3510 0.99954923 8318
UTC large
Height (km)
Speed (km/s)
/
Latitude / Longitude
Inclination (degrees)
Orbital Period (minutes)
Azimuth
Elevation
Range (km)
Doppler Factor

Next 0 passes for location: London (51.5072 / 0.1276)

Sorry there are no passes over London.